www.pogodaiklimat.ru

Погода и климат >> Архив погоды >> Австралия >> Новый Южный Уэльс >> Милдьюра


ПОГОДА в Милдьюре

  • Прогноз погоды в Милдьюре
  • Монитор погоды в Милдьюре

АРХИВ ПОГОДЫ в Милдьюре

Время (UTC), дата Ветер
(напр.,м/с)
 
Видим.   Явления Облачность Т
(С)
Тd
(С)
f
(%)
Тe
(С)
Тes
(С)
Комфортность P
(гПа)
Po
(гПа)
Тmin
(С)
Tmax
(С)
R
(мм)
R24
(мм)
S
(см)
10 17.01 ЮВ 5 н/о н/о +36.0 +10.2 21 +35 +35 очень
жарко
1004.6 998.8
11 17.01 ЮВ 6 н/о н/о +36.3 +9.8 20 +35 +35 очень
жарко
1005.4 999.6
12 17.01 Ю 8 н/о н/о +34.5 +10.4 23 +34 +34 очень
жарко
1007.2 1001.3
13 17.01 Ю 7 н/о н/о +32.2 +11.4 28 +32 +32 жарко 1007.8 1001.9 +42.6
14 17.01 ЮВ 8 н/о н/о +31.0 +11.9 31 +31 +31 жарко 1007.4 1001.5
15 17.01 ЮВ 6 н/о н/о +30.2 +12.1 33 +31 +31 жарко 1006.8 1000.9
16 17.01 ЮВ 4 н/о н/о +29.9 +12.3 34 +31 +31 жарко 1006.6 1000.7
17 17.01 В 8 н/о н/о +30.3 +12.2 33 +31 +31 жарко 1004.4 998.6
18 17.01 В 5 н/о н/о +30.5 +11.9 32 +31 +31 жарко 1004.4 998.6
19 17.01 ЮВ 3 н/о н/о +29.5 +12.0 34 +30 +30 жарко 1004.8 999.0
20 17.01 Ю 2 н/о н/о +28.4 +12.3 37 +30 +30 жарко 1005.1 999.3
21 17.01 Ю 4 н/о н/о +28.1 +12.8 39 +30 +30 жарко 1006.1 1000.3
22 17.01 Ю 5 35 км 3/0
[]
+29.1 +13.7 39 +31 +33 жарко 1007.3 1001.4
23 17.01 Ю 6 н/о н/о +32.0 +12.8 31 +33 +33 жарко 1007.7 1001.8
00 18.01 Ю 5 н/о н/о +34.5 +12.2 26 +35 +35 очень
жарко
1007.7 1001.8
01 18.01 ЮВ 5 н/о н/о +38.1 +11.2 20 +37 +37 очень
жарко
1007.2 1001.3 +28.0
02 18.01 ЮВ 4 н/о н/о +38.6 +11.6 20 +38 +38 очень
жарко
1007.3 1001.4
03 18.01 Ю 5 н/о н/о +39.8 +9.2 16 +38 +38 очень
жарко
1007.2 1001.3
04 18.01 Ю 5 25 км 10/0
[]
+39.5 +9.9 17 +38 +43 очень
жарко
1007.5 1001.6
05 18.01 ЮЗ 10 н/о н/о +37.1 +11.1 21 +36 +36 очень
жарко
1008.3 1002.4
06 18.01 ЮЗ 11 н/о н/о +33.5 +12.5 28 +34 +34 очень
жарко
1009.8 1003.9
07 18.01 ЮЗ 9 н/о н/о +32.0 +14.2 34 +34 +34 душно 1010.3 1004.4
08 18.01 ЮЗ 7 н/о н/о +30.7 +12.6 33 +32 +32 жарко 1011.2 1005.3
09 18.01 Ю 5 н/о н/о +29.8 +12.7 35 +31 +31 жарко 1011.4 1005.5
10 18.01 Ю 5 н/о н/о +28.8 +12.2 36 +30 +30 жарко 1012.4 1006.5
11 18.01 Ю 5 н/о н/о +26.8 +13.2 43 +29 +29 жарко 1013.2 1007.3
12 18.01 Ю 6 н/о н/о +25.5 +11.3 41 +27 +27 жарко 1015.2 1009.3
13 18.01 Ю 5 н/о н/о +24.6 +10.8 42 +26 +26 жарко 1015.0 1009.1 +41.3
14 18.01 Ю 6 н/о н/о +23.4 +8.7 39 +25 +25 комфорт 1016.2 1010.3
15 18.01 Ю 7 н/о н/о +22.1 +8.2 41 +23 +23 комфорт 1016.7 1010.8
16 18.01 Ю 5 н/о н/о +21.2 +9.4 47 +23 +23 комфорт 1016.5 1010.6
17 18.01 Ю 4 н/о н/о +20.5 +9.7 50 +22 +22 комфорт 1016.9 1011.0
18 18.01 Ю 4 н/о н/о +19.9 +10.3 54 +21 +21 комфорт 1017.2 1011.3
19 18.01 Ю 4 н/о н/о +19.4 +10.7 57 +21 +21 комфорт 1018.2 1012.3
20 18.01 Ю 5 н/о н/о +18.5 +11.6 64 +19 +19 1018.7 1012.8
21 18.01 Ю 6 н/о н/о +18.4 +11.2 63 +18 +18 1019.7 1013.8
22 18.01 Ю 6 35 км 1/0
[]
+20.3 +11.0 55 +22 +24 комфорт 1020.2 1014.3
23 18.01 Ю 7 н/о н/о +21.5 +10.6 50 +23 +23 комфорт 1020.3 1014.4
00 19.01 Ю 6 н/о н/о +23.5 +9.5 41 +24 +24 комфорт 1020.2 1014.3
01 19.01 Ю 7 н/о н/о +25.2 +7.8 33 +25 +25 комфорт 1020.0 1014.1 +18.3
02 19.01 Ю 6 н/о н/о +26.9 +6.9 28 +26 +26 жарко 1019.4 1013.5
03 19.01 Ю 6 н/о н/о +29.2 +6.0 23 +28 +28 жарко 1018.9 1013.0
04 19.01 Ю 5 30 км 3/0
[]
+30.4 +4.2 19 +28 +36 жарко 1018.4 1012.5
05 19.01 Ю 5 н/о н/о +31.1 +4.0 18 +29 +29 жарко 1017.5 1011.6
06 19.01 Ю 5 н/о н/о +32.7 +1.7 14 +30 +30 жарко 1017.1 1011.2
07 19.01 Ю 4 н/о н/о +32.2 +2.3 15 +29 +29 жарко 1016.4 1010.5
08 19.01 Ю 5 н/о н/о +31.8 0.0 13 +29 +29 жарко 1016.3 1010.4
09 19.01 Ю 4 н/о н/о +31.8 -1.1 12 +28 +28 жарко 1016.5 1010.6
10 19.01 Ю 3 н/о н/о +28.6 -2.5 13 +26 +26 жарко 1017.0 1011.1
11 19.01 Ю 3 н/о н/о +26.9 -3.8 13 +24 +24 комфорт 1017.7 1011.8
12 19.01 Ю 3 н/о н/о +26.1 -2.5 15 +24 +24 комфорт 1018.3 1012.4
13 19.01 Ю 3 н/о н/о +23.5 -0.7 20 +22 +22 комфорт 1018.4 1012.5 +33.2
14 19.01 Ю 3 н/о н/о +23.5 -0.1 21 +22 +22 комфорт 1018.4 1012.5
15 19.01 Ю 3 н/о н/о +22.3 +0.8 24 +22 +22 комфорт 1018.4 1012.5
16 19.01 Ю 4 н/о н/о +21.8 +2.5 28 +22 +22 комфорт 1018.3 1012.4
17 19.01 Ю 5 н/о н/о +21.2 +3.4 31 +21 +21 комфорт 1018.4 1012.5
18 19.01 Ю 5 н/о н/о +20.4 +4.4 35 +21 +21 комфорт 1018.2 1012.3
19 19.01 Ю 5 н/о н/о +19.6 +4.9 38 +20 +20 1018.3 1012.4
20 19.01 Ю 4 н/о н/о +18.7 +5.5 42 +19 +19 1019.0 1013.1
21 19.01 Ю 5 н/о н/о +18.8 +6.6 45 +19 +19 1019.5 1013.6
22 19.01 Ю 5 н/о н/о +20.0 +6.0 40 +21 +21 комфорт 1019.5 1013.6
23 19.01 ЮВ 5 н/о н/о +21.8 +6.5 37 +23 +23 комфорт 1019.8 1013.9
00 20.01 ЮВ 4 н/о н/о +24.1 +7.3 34 +24 +24 комфорт 1019.8 1013.9
01 20.01 ЮВ 4 н/о н/о +26.1 +7.7 31 +26 +26 жарко 1019.0 1013.1 +18.6
02 20.01 ЮВ 4 н/о н/о +28.2 +8.0 28 +28 +28 жарко 1018.0 1012.1
03 20.01 ЮВ 4 н/о н/о +30.3 +7.5 24 +29 +29 жарко 1017.2 1011.3
04 20.01 В 4 35 км 3/0
[]
+32.6 +6.7 20 +31 +42 жарко 1016.2 1010.3
05 20.01 В 3 н/о н/о +33.5 +6.7 19 +32 +32 жарко 1015.3 1009.4
06 20.01 ЮВ 4 н/о н/о +34.7 +6.9 18 +33 +33 жарко 1014.5 1008.6
07 20.01 ЮВ 4 н/о н/о +35.0 +7.1 18 +33 +33 жарко 1013.9 1008.0
08 20.01 В 3 н/о н/о +35.2 +7.3 18 +33 +33 жарко 1013.5 1007.6
09 20.01 ЮВ 3 н/о н/о +34.6 +6.8 18 +33 +33 жарко 1013.8 1007.9
10 20.01 штиль 0 н/о н/о +30.6 +8.9 26 +30 +30 жарко 1014.4 1008.5
11 20.01 З 2 н/о н/о +29.0 +9.2 29 +29 +29 жарко 1014.5 1008.6
12 20.01 ЮЗ 2 н/о н/о +27.1 +8.0 30 +27 +27 жарко 1014.4 1008.5
13 20.01 З 2 4500 м н/о +26.2 +7.3 30 +26 +26 жарко 1014.2 1008.3 +35.8
14 20.01 ЮВ 3 н/о н/о +26.9 +8.4 31 +27 +27 жарко 1014.3 1008.4
15 20.01 Ю 3 н/о н/о +25.5 +8.9 35 +26 +26 жарко 1014.3 1008.4
16 20.01 Ю 3 н/о н/о +25.3 +9.2 36 +26 +26 жарко 1014.1 1008.2
17 20.01 ЮВ 3 н/о н/о +23.3 +10.0 43 +25 +25 комфорт 1013.6 1007.7
18 20.01 ЮВ 4 н/о н/о +23.0 +9.8 43 +25 +25 комфорт 1013.3 1007.4
19 20.01 ЮВ 3 н/о н/о +22.0 +8.9 43 +23 +23 комфорт 1013.7 1007.8
20 20.01 Ю 2 н/о н/о +21.4 +9.3 46 +23 +23 комфорт 1014.0 1008.1
21 20.01 ЮВ 4 н/о н/о +23.1 +11.2 47 +25 +25 комфорт 1014.3 1008.4
22 20.01 ЮВ 5 >70 км 3/0
[]
+25.9 +11.3 40 +27 +30 жарко 1014.4 1008.5
23 20.01 ЮВ 4 н/о н/о +28.4 +11.0 34 +29 +29 жарко 1014.5 1008.6
00 21.01 ЮВ 3 н/о н/о +30.1 +10.6 30 +30 +30 жарко 1014.6 1008.7
01 21.01 В 3 н/о н/о +33.1 +11.0 26 +33 +33 жарко 1014.1 1008.2 +21.4
02 21.01 ЮВ 3 н/о н/о +35.0 +9.4 21 +34 +34 очень
жарко
1013.2 1007.3
03 21.01 ЮВ 4 н/о н/о +36.8 +2.8 12 +34 +34 очень
жарко
1012.2 1006.3
04 21.01 Ю 3 35 км 6/0
[]
+37.1 +4.1 13 +34 +45 очень
жарко
1011.3 1005.4
05 21.01 В 2 н/о н/о +38.5 +4.1 12 +35 +35 очень
жарко
1010.6 1004.7
06 21.01 СВ 2 н/о н/о +37.7 +4.6 13 +35 +35 очень
жарко
1010.1 1004.2
07 21.01 ЮВ 3 н/о н/о +38.6 +4.1 12 +36 +36 очень
жарко
1009.8 1003.9
08 21.01 Ю 4 н/о н/о +38.2 +2.6 11 +35 +35 очень
жарко
1009.8 1003.9
09 21.01 ЮВ 4 н/о н/о +37.1 +6.2 15 +35 +35 очень
жарко
1010.2 1004.3
10 21.01 Ю 3 н/о н/о +34.7 +6.9 18 +33 +33 жарко 1010.9 1005.0
11 21.01 ЮВ 3 н/о н/о +31.8 +8.1 23 +31 +31 жарко 1011.5 1005.6
12 21.01 ЮВ 3 н/о н/о +30.4 +8.2 25 +30 +30 жарко 1011.7 1005.8
13 21.01 Ю 2 н/о н/о +29.1 +8.2 27 +29 +29 жарко 1011.7 1005.8 +39.1
14 21.01 ЮВ 3 н/о н/о +29.0 +8.1 27 +28 +28 жарко 1011.3 1005.4
15 21.01 В 2 н/о н/о +26.3 +9.6 35 +27 +27 жарко 1010.8 1004.9
16 21.01 ЮВ 2 н/о н/о +25.3 +9.6 37 +26 +26 жарко 1010.4 1004.5
17 21.01 Ю 3 н/о н/о +25.8 +8.3 33 +26 +26 жарко 1010.3 1004.4
18 21.01 Ю 3 н/о н/о +24.4 +9.6 39 +25 +25 комфорт 1010.3 1004.4
19 21.01 Ю 2 н/о н/о +23.3 +11.0 46 +26 +26 жарко 1010.8 1004.9
20 21.01 ЮВ 3 н/о н/о +22.3 +12.0 52 +25 +25 комфорт 1011.0 1005.1
21 21.01 ЮВ 2 н/о н/о +25.0 +12.9 47 +27 +27 жарко 1011.6 1005.7
22 21.01 ЮВ 3 35 км ясно +28.2 +13.3 40 +30 +34 жарко 1011.6 1005.7
23 21.01 В 3 н/о н/о +32.8 +12.9 30 +33 +33 жарко 1011.5 1005.6
00 22.01 В 3 н/о н/о +36.1 +11.7 23 +36 +36 очень
жарко
1011.4 1005.5
01 22.01 СЗ 2 н/о н/о +38.2 +7.0 15 +36 +36 очень
жарко
1011.1 1005.2 +22.4
02 22.01 Ю 3 н/о н/о +38.7 +7.4 15 +36 +36 очень
жарко
1010.5 1004.6
03 22.01 ЮЗ 3 н/о н/о +40.2 +4.1 11 +37 +37 очень
жарко
1009.8 1003.9
04 22.01 З 5 н/о н/о +40.5 +4.3 11 +37 +37 очень
жарко
1009.1 1003.2
05 22.01 ЮЗ 4 н/о н/о +42.2 +5.6 11 +39 +39 очень
жарко
1008.6 1002.7
06 22.01 З 4 н/о н/о +42.1 +5.6 11 +39 +39 очень
жарко
1008.0 1002.1
07 22.01 З 5 н/о н/о +42.0 +6.7 12 +39 +39 очень
жарко
1007.4 1001.5
08 22.01 З 4 н/о н/о +41.7 +6.5 12 +39 +39 очень
жарко
1007.2 1001.3
09 22.01 ЮЗ 4 н/о н/о +40.9 +5.9 12 +38 +38 очень
жарко
1007.4 1001.5
10 22.01 Ю 4 н/о н/о +38.6 +7.4 15 +36 +36 очень
жарко
1008.1 1002.2
11 22.01 Ю 3 н/о н/о +36.7 +7.7 17 +35 +35 очень
жарко
1008.8 1002.9
12 22.01 Ю 4 н/о н/о +35.9 +8.7 19 +34 +34 очень
жарко
1009.6 1003.7
13 22.01 Ю 5 н/о н/о +35.2 +8.9 20 +34 +34 очень
жарко
1010.1 1004.2 +42.8
14 22.01 Ю 3 н/о н/о +33.5 +8.9 22 +32 +32 жарко 1009.9 1004.0
15 22.01 Ю 3 н/о н/о +31.4 +9.6 26 +31 +31 жарко 1009.6 1003.7
16 22.01 Ю 3 н/о н/о +30.1 +9.1 27 +30 +30 жарко 1009.3 1003.4
17 22.01 Ю 3 н/о н/о +29.1 +8.7 28 +29 +29 жарко 1009.2 1003.3
18 22.01 Ю 3 н/о н/о +27.7 +9.0 31 +28 +28 жарко 1009.2 1003.3
19 22.01 Ю 4 н/о н/о +26.8 +8.3 31 +27 +27 жарко 1009.7 1003.8
20 22.01 Ю 3 н/о н/о +25.9 +8.0 32 +26 +26 жарко 1010.3 1004.4
21 22.01 Ю 4 н/о н/о +27.1 +7.5 29 +27 +27 жарко 1010.9 1005.0
22 22.01 ЮВ 5 н/о н/о +29.0 +8.7 28 +29 +29 жарко 1011.5 1005.6
23 22.01 ЮВ 5 н/о н/о +31.6 +9.8 26 +31 +31 жарко 1011.6 1005.7
00 23.01 ЮВ 5 н/о н/о +34.5 +7.5 19 +33 +33 жарко 1011.6 1005.7
01 23.01 ЮВ 4 н/о н/о +36.4 +8.3 18 +35 +35 очень
жарко
1011.0 1005.1 +26.0
02 23.01 Ю 3 н/о н/о +38.2 +7.0 15 +36 +36 очень
жарко
1010.3 1004.4
03 23.01 ЮВ 4 н/о н/о +40.6 +6.8 13 +38 +38 очень
жарко
1009.6 1003.7
04 23.01 Ю 4 35 км н/о +40.8 +7.0 13 +38 +38 очень
жарко
1009.0 1003.1
05 23.01 ЮЗ 3 н/о н/о +40.8 +5.8 12 +38 +38 очень
жарко
1008.3 1002.4
06 23.01 Ю 3 н/о н/о +41.4 +5.0 11 +38 +38 очень
жарко
1007.9 1002.0
07 23.01 ЮВ 4 н/о н/о +40.7 +5.7 12 +38 +38 очень
жарко
1007.5 1001.6
08 23.01 Ю 5 н/о н/о +40.0 +5.2 12 +37 +37 очень
жарко
1007.5 1001.6
09 23.01 ЮВ 5 н/о н/о +38.4 +6.2 14 +36 +36 очень
жарко
1007.7 1001.8
10 23.01 ЮВ 3 н/о н/о +35.2 +8.1 19 +33 +33 жарко 1008.0 1002.1
11 23.01 ЮВ 3 н/о н/о +33.3 +8.0 21 +32 +32 жарко 1008.5 1002.6
12 23.01 ЮВ 3 н/о н/о +31.7 +8.0 23 +31 +31 жарко 1009.0 1003.1
13 23.01 ЮВ 3 н/о н/о +29.6 +6.9 24 +28 +28 жарко 1009.2 1003.3 +42.0
14 23.01 Ю 2 н/о н/о +29.0 +5.8 23 +28 +28 жарко 1009.0 1003.1
15 23.01 Ю 2 н/о н/о +26.8 +6.2 27 +26 +26 жарко 1008.8 1002.9
16 23.01 ЮВ 3 н/о н/о +26.4 +5.4 26 +26 +26 жарко 1008.6 1002.7
17 23.01 Ю 3 н/о н/о +24.6 +6.4 31 +25 +25 комфорт 1008.8 1002.9
18 23.01 ЮВ 3 н/о н/о +24.0 +6.7 33 +24 +24 комфорт 1009.2 1003.3
19 23.01 Ю 2 н/о н/о +23.6 +7.7 36 +24 +24 комфорт 1009.4 1003.5
20 23.01 ЮВ 3 н/о н/о +23.1 +8.8 40 +24 +24 комфорт 1009.2 1003.3
21 23.01 ЮВ 4 н/о н/о +25.5 +8.9 35 +26 +26 жарко 1009.1 1003.2
22 23.01 ЮВ 4 35 км ясно +28.6 +9.8 31 +29 +32 жарко 1009.8 1003.9
23 23.01 В 4 н/о н/о +31.3 +10.6 28 +31 +31 жарко 1009.5 1003.6
00 24.01 В 4 н/о н/о +34.8 +11.2 24 +34 +34 очень
жарко
1009.0 1003.1
01 24.01 В 3 н/о н/о +38.1 +11.2 20 +37 +37 очень
жарко
1008.4 1002.5 +23.0
02 24.01 В 3 н/о н/о +40.8 +10.0 16 +39 +39 очень
жарко
1007.3 1001.4
03 24.01 С 5 н/о н/о +42.0 +5.5 11 +39 +39 очень
жарко
1006.5 1000.6
04 24.01 СЗ 4 35 км н/о +43.4 +5.2 10 +41 +41 опасность
перегрева
1005.6 999.8
05 24.01 С 3 н/о н/о +44.3 +2.7 8 +41 +41 опасность
перегрева
1004.7 998.9
06 24.01 З 3 н/о н/о +44.2 +2.6 8 +41 +41 опасность
перегрева
1004.1 998.3
07 24.01 СЗ 3 н/о н/о +44.0 +2.4 8 +41 +41 опасность
перегрева
1003.7 997.9
08 24.01 С 3 н/о н/о +43.9 +2.4 8 +40 +40 очень
жарко
1003.4 997.6
09 24.01 В 1 н/о н/о +42.9 +4.8 10 +40 +40 очень
жарко
1003.7 997.9

 

Местоположение метеостанции Милдьюра (Новый Южный Уэльс, Австралия): широта -34.23 долгота 142.08 высота над уровнем моря 53 м.

В архиве по умолчанию представлена погода в Милдьюре за последнюю неделю. Архивные данные за месяц целиком и за предыдущие месяцы, начиная с января 2011 года, Вы можете получить, выбрав интересующий диапазон дат из раскрывающегося списка и нажав кнопку "Ввод!".


*Определитесь, кто Вы:
робот инопланетянин человек

Внимание! Время в таблицах - всемирное. Для получения местного времени необходимо прибавить поправку, которая равна 10 ч.

Смотрите также архив погоды в соседних городах и на ближайших метеорологических станциях:

Погода в Уолпеапе (Виктория, Австралия) (99 км)
Погода в Ренмарке (Южная Австралия, Австралия) (129 км)
Погода в Локстоне (Южная Австралия, Австралия) (138 км)
Погода в Хоптауне (Виктория, Австралия) (168 км)
Погода в Суон-Хилле (Виктория, Австралия) (184 км)
Погода в Ламеру (Южная Австралия, Австралия) (190 км)
Погода в Нхилле (Виктория, Австралия) (237 км)
Погода в Чарльтоне (Виктория, Австралия) (255 км)
Погода в Хее (Новый Южный Уэльс, Австралия) (255 км)
Погода в Брокен-Хилле (Новый Южный Уэльс, Австралия) (255 км)

Пояснения к столбцам:

Ветер - указаны скорость ветра в м/с - средняя за 10 мин, порывы в срок и между сроками (в фигурных скобках) и направление, откуда дует ветер: С - северный, СВ - северо-восточный, В - восточный, ЮВ - юго-восточный, Ю - южный, ЮЗ - юго-западный, З - западный, СЗ - северо-западный.
Видимость - горизонтальная дальность видимости в метрах или километрах. При видимости от 1 до 10 км при отсутствии осадков обычно наблюдается дымка, при ухудшении видимости до 1 км и менее - туман. В сухую погоду видимость может ухудшаться дымом, пылью или мглою.
Явления - указаны атмосферные явления, наблюдавшиеся в срок или в последний час перед сроком; фигурными скобками обозначены явления, наблюдавшиеся между сроками (за 1-3 часа до срока); квадратными скобками обозначены град или гололедные отложения с указанием их диаметра в мм.
Облачность - указаны через наклонную черту общая и нижняя облачность в баллах и высота нижней границы облаков в метрах; квадратными скобками обозначены формы облаков: Ci - перистые, Cs - перисто-слоистые, Cc - перисто-кучевые, Ac - высококучевые, As - высокослоистые, Sc - слоисто-кучевые, Ns - слоисто-дождевые, Cu - кучевые, Cb - кучево-дождевые. Подробнее классификацию облаков см. в Атласе облаков (PDF).
T - Температура воздуха - температура, измеренная на высоте 2 м над землей.
Td - Температура точки росы - температура, при понижении до которой содержащийся в воздухе водяной пар достигнет насыщения.
f - Относительная влажность воздуха - влажноcть воздуха, измеренная на высоте 2 м над землей.
Te - Эффективная температура - температура, которую ощущает одетый по сезону человек в тени. Характеристика душности погоды. При расчете учитывается влияние влажности воздуха и скорости ветра на теплоощущения человека.
Tes - Эффективная температура на солнце - температура, которую ощущает человек, с поправкой на солнечный нагрев. Характеристика знойности погоды. Зависит от высоты солнца над горизонтом, облачности и скорости ветра. Ночью, в пасмурную погоду, а также при ветре 12 м/с и более поправка равна нулю.
P - Атмосферное давление - приведенное к уровню моря атмосферное давление.
Po - Атмосферное давление - измеренное на уровне метеостанции атмосферное давление.
Tmin - Минимальная температура - минимум температуры воздуха на высоте 2 м над землей.
Tmax - Максимальная температура - максимум температуры воздуха на высоте 2 м над землей.
R - Количество осадков - Количество выпавших осадков за период времени, мм. При наведении курсора мыши на число - период времени, за который выпало указанное количество осадков.
R24 - Количество осадков - Количество выпавших осадков за 24 часа, мм.
S - Снежный покров - Высота снежного покрова, см. При наведении курсора мыши на число - состояние снежного покрова и степень покрытия местности в баллах.